Location: *
(46.4000°N, 12.6667°E)
Time: 09:33:20
(UTC+00:00)

Cosmos 1954 Rocket - Pass Details

Date: 09 April 2020
Orbit: 752 x 781 km, 74.1° (Epoch: 06 June)

Event Time Altitude Azimuth Distance (km) Brightness Sun altitude
Rises 19:27:43 0° 201° (SSW) 3,227 7.1 -16.5°
Reaches altitude 10° 19:30:05 10° 201° (SSW) 2,300 6.4 -16.8°
Maximum altitude 19:35:19 87° 289° (WNW) 770 4.0 -17.6°
Drops below altitude 10° 19:40:33 10° 21° (NNE) 2,298 6.6 -18.4°
Sets 19:42:55 0° 22° (NNE) 3,224 7.4 -18.7°
